Tracking 22882 objects as of 18-Apr-2021
HD Live streaming from Space Station
objects crossing your sky now

OPS 0054 (DMSP 5A F1)

Track OPS 0054 (DMSP 5A F1) now!
10-day predictions
OPS 0054 (DMSP 5A F1) is classified as:


NORAD ID: 4331
Int'l Code: 1970-012A
Perigee: 746.6 km
Apogee: 832.4 km
Inclination: 98.8 °
Period: 100.5 minutes
Semi major axis: 7160 km
RCS: 0.986 m2 (medium)
Launch date: February 11, 1970
Source: United States (US)
Launch site: AIR FORCE WESTERN TEST RANGE (AFWTR)
aabbcc
Your satellite tracking list
Your tracking list is empty




NASA's NSSDC Master Catalog

Two Line Element Set (TLE):
1 04331U 70012A   21107.87671295  .00000027  00000-0  25990-4 0  9995
2 04331  98.8235 206.2072 0059881  93.2619 267.5417 14.32799770666928
Source of the keplerian elements: AFSPC